Вернуться в каталог

STARLINK-4616

АктивенСвязьVLEO
NORAD 53734·PAYLOAD·🇺🇸 United States

Запущен Sep 5, 2022 с Cape Canaveral Space Force Station

Loading…

Ближайшие Пролёты (ближайшие 24 часа)

TLE

СвежийSource: CelesTrak SupGP

Эпоха: Sep 14, 2026, 20:44 UTC

1 53734C 22107AL  26257.86437500 -.00020000  00000+0 -59110-3 0  2578
2 53734  53.1586 112.4002 0001188  88.0371 197.7989 15.34391307    14

Отслеживайте STARLINK-4616 в реальном времени с AllMySat

Download on the App Store